Volver al catálogo

STARLINK-5399

ActivoComunicacionesVLEO
NORAD 54788·PAYLOAD·🇺🇸 United States

Lanzado Dec 17, 2022 desde Cape Canaveral Space Force Station

Loading…

Próximos Pases (próximas 24 horas)

TLE

ActualizadoSource: CelesTrak SupGP

Época: Sep 14, 2026, 20:44 UTC

1 54788C 22175AG  26257.86437500  .00046512  00000+0  13744-2 0  2579
2 54788  53.1572 245.7935 0001320  93.0058 147.2192 15.34363716    19

Sigue STARLINK-5399 en tiempo real con AllMySat

Download on the App Store